| time (UTC) | temp C | wind direction | speed KPH | gust KPH | rain 1hr cm | rain 24hr cm | rain mn cm | humidity % | barometer mb |
| 20260505063917 | 7 | 41 | 4.8 | 4.8 | 0.00 | 0.00 | 0.00 | 63 | 1004.2 |
| 20260505063413 | 7 | 54 | 4.8 | 4.8 | 0.00 | 0.00 | 0.00 | 63 | 1004.0 |
| 20260505062910 | 7 | 87 | 3.2 | 3.2 | 0.00 | 0.00 | 0.00 | 62 | 1004.0 |
| 20260505062407 | 7 | 90 | 4.8 | 4.8 | 0.00 | 0.00 | 0.00 | 62 | 1003.8 |
| 20260505061904 | 8 | 119 | 1.6 | 1.6 | 0.00 | 0.00 | 0.00 | 62 | 1003.8 |
| 20260505061402 | 8 | 56 | 3.2 | 3.2 | 0.00 | 0.00 | 0.00 | 60 | 1003.7 |
| 20260505060859 | 8 | 121 | 0.0 | 0.0 | 0.00 | 0.00 | 0.00 | 61 | 1003.9 |
| 20260505060356 | 8 | 145 | 0.0 | 1.6 | 0.00 | 0.00 | 0.00 | 61 | 1003.6 |
| 20260505055852 | 8 | 127 | 0.0 | 0.0 | 0.00 | 0.05 | 0.05 | 62 | 1003.6 |
| 20260505055348 | 8 | 119 | 1.6 | 1.6 | 0.00 | 0.05 | 0.05 | 58 | 1003.8 |
| 20260505054845 | 8 | 104 | 3.2 | 3.2 | 0.00 | 0.05 | 0.05 | 63 | 1003.8 |
| 20260505054343 | 8 | 79 | 3.2 | 3.2 | 0.00 | 0.05 | 0.05 | 63 | 1003.4 |
| 20260505053841 | 8 | 75 | 4.8 | 4.8 | 0.00 | 0.05 | 0.05 | 63 | 1003.8 |
| 20260505053338 | 8 | 104 | 8.0 | 9.7 | 0.00 | 0.05 | 0.05 | 63 | 1003.7 |
| 20260505052834 | 8 | 95 | 8.0 | 8.0 | 0.00 | 0.05 | 0.05 | 62 | 1003.6 |
| 20260505052331 | 8 | 90 | 6.4 | 8.0 | 0.00 | 0.05 | 0.05 | 63 | 1003.4 |
| 20260505051828 | 8 | 91 | 6.4 | 8.0 | 0.00 | 0.05 | 0.05 | 62 | 1003.6 |
| 20260505051326 | 8 | 79 | 6.4 | 8.0 | 0.00 | 0.05 | 0.05 | 63 | 1003.4 |
| 20260505050824 | 8 | 92 | 8.0 | 8.0 | 0.00 | 0.05 | 0.05 | 63 | 1003.8 |
| 20260505050322 | 7 | 122 | 1.6 | 1.6 | 0.00 | 0.05 | 0.05 | 68 | 1003.6 |
| 20260505041752 | 7 | 89 | 8.0 | 9.7 | 0.00 | 0.05 | 0.05 | 66 | 1003.0 |
| 20260505041249 | 7 | 89 | 6.4 | 8.0 | 0.00 | 0.05 | 0.05 | 67 | 1003.0 |
| 20260505040746 | 7 | 85 | 6.4 | 8.0 | 0.00 | 0.05 | 0.05 | 66 | 1003.1 |
| 20260505040244 | 7 | 100 | 6.4 | 8.0 | 0.00 | 0.05 | 0.05 | 65 | 1003.0 |
| 20260505035741 | 7 | 96 | 6.4 | 9.7 | 0.00 | 0.05 | 0.05 | 67 | 1002.7 |
| 20260505035236 | 7 | 107 | 3.2 | 3.2 | 0.00 | 0.05 | 0.05 | 68 | 1002.6 |
| 20260505034733 | 8 | 96 | 3.2 | 3.2 | 0.00 | 0.05 | 0.05 | 67 | 1002.8 |
| 20260505034230 | 8 | 133 | 1.6 | 3.2 | 0.00 | 0.05 | 0.05 | 67 | 1002.7 |
| 20260505033727 | 8 | 119 | 3.2 | 3.2 | 0.00 | 0.05 | 0.05 | 63 | 1002.7 |
| 20260505033225 | 8 | 103 | 4.8 | 4.8 | 0.00 | 0.05 | 0.05 | 63 | 1002.1 |
| 20260505032723 | 8 | 87 | 6.4 | 8.0 | 0.00 | 0.05 | 0.05 | 64 | 1002.5 |
| 20260505032218 | 8 | 97 | 3.2 | 3.2 | 0.00 | 0.05 | 0.05 | 65 | 1002.8 |
| 20260505031716 | 8 | 110 | 3.2 | 3.2 | 0.00 | 0.05 | 0.05 | 65 | 1002.4 |
| 20260505031212 | 7 | 114 | 4.8 | 4.8 | 0.00 | 0.05 | 0.05 | 66 | 1002.5 |
| 20260505030709 | 8 | 130 | 1.6 | 1.6 | 0.00 | 0.05 | 0.05 | 65 | 1002.1 |
| 20260505030205 | 8 | 113 | 3.2 | 3.2 | 0.00 | 0.05 | 0.05 | 64 | 1002.2 |
| 20260505025701 | 8 | 117 | 3.2 | 3.2 | 0.00 | 0.05 | 0.05 | 65 | 1002.1 |
| 20260505025159 | 7 | 89 | 3.2 | 3.2 | 0.00 | 0.05 | 0.05 | 67 | 1002.2 |
| 20260505024657 | 8 | 129 | 1.6 | 1.6 | 0.00 | 0.05 | 0.05 | 64 | 1001.9 |
| 20260505024154 | 8 | 137 | 0.0 | 1.6 | 0.00 | 0.05 | 0.05 | 64 | 1001.8 |
| 20260505023651 | 10 | 120 | 3.2 | 3.2 | 0.00 | 0.05 | 0.05 | 59 | 1001.8 |
| 20260505023149 | 10 | 165 | 1.6 | 1.6 | 0.00 | 0.05 | 0.05 | 60 | 1001.6 |
| 20260505022646 | 10 | 181 | 4.8 | 4.8 | 0.00 | 0.05 | 0.05 | 60 | 1001.9 |
| 20260505022143 | 10 | 105 | 4.8 | 4.8 | 0.00 | 0.05 | 0.05 | 58 | 1001.5 |
| 20260505021639 | 10 | 84 | 4.8 | 4.8 | 0.00 | 0.05 | 0.05 | 60 | 1001.6 |
| 20260505021136 | 10 | 99 | 4.8 | 4.8 | 0.00 | 0.05 | 0.05 | 60 | 1001.5 |
| 20260505020632 | 10 | 91 | 4.8 | 4.8 | 0.00 | 0.05 | 0.05 | 58 | 1001.3 |
| 20260505020128 | 11 | 86 | 4.8 | 4.8 | 0.00 | 0.05 | 0.05 | 55 | 1001.4 |
| 20260505015625 | 11 | 92 | 8.0 | 9.7 | 0.00 | 0.05 | 0.05 | 54 | 1001.8 |
| 20260505015122 | 12 | 92 | 4.8 | 4.8 | 0.00 | 0.05 | 0.05 | 51 | 1001.5 |
| 20260505014618 | 13 | 100 | 6.4 | 8.0 | 0.00 | 0.05 | 0.05 | 49 | 1001.8 |
| 20260505014116 | 13 | 114 | 4.8 | 4.8 | 0.00 | 0.05 | 0.05 | 48 | 1001.6 |
| 20260505013613 | 13 | 117 | 4.8 | 4.8 | 0.00 | 0.05 | 0.05 | 48 | 1001.5 |
| 20260505013110 | 14 | 144 | 4.8 | 4.8 | 0.00 | 0.05 | 0.05 | 48 | 1001.8 |
| 20260505012609 | 14 | 111 | 8.0 | 9.7 | 0.00 | 0.05 | 0.05 | 47 | 1001.8 |
| 20260505012105 | 14 | 100 | 8.0 | 9.7 | 0.00 | 0.05 | 0.05 | 46 | 1001.9 |
| 20260505011600 | 14 | 109 | 9.7 | 11.3 | 0.00 | 0.05 | 0.05 | 48 | 1001.9 |
| 20260505011059 | 13 | 88 | 9.7 | 11.3 | 0.00 | 0.05 | 0.05 | 47 | 1001.9 |
| 20260505010559 | 13 | 122 | 11.3 | 12.9 | 0.00 | 0.05 | 0.05 | 48 | 1001.9 |
| 20260505010055 | 13 | 70 | 12.9 | 14.5 | 0.00 | 0.05 | 0.05 | 47 | 1002.2 |
| 20260505005552 | 13 | 112 | 9.7 | 11.3 | 0.00 | 0.05 | 0.05 | 48 | 1002.0 |
| 20260505005049 | 13 | 90 | 9.7 | 12.9 | 0.00 | 0.05 | 0.05 | 48 | 1002.0 |
| 20260505004546 | 14 | 89 | 14.5 | 16.1 | 0.00 | 0.05 | 0.05 | 48 | 1001.8 |
| 20260505004043 | 14 | 45 | 14.5 | 17.7 | 0.00 | 0.05 | 0.05 | 45 | 1001.9 |
| 20260505003540 | 13 | 9 | 11.3 | 14.5 | 0.00 | 0.05 | 0.05 | 49 | 1002.2 |
| 20260505003038 | 13 | 338 | 6.4 | 8.0 | 0.00 | 0.05 | 0.05 | 43 | 1002.2 |
| 20260505002538 | 12 | 239 | 8.0 | 12.9 | 0.00 | 0.05 | 0.05 | 51 | 1002.2 |
| 20260505002037 | 12 | 351 | 20.9 | 24.1 | 0.00 | 0.05 | 0.05 | 50 | 1002.6 |
| 20260505001534 | 13 | 339 | 27.4 | 33.8 | 0.00 | 0.05 | 0.05 | 52 | 1002.7 |
| 20260505001031 | 12 | 322 | 24.1 | 32.2 | 0.00 | 0.05 | 0.05 | 54 | 1002.8 |
| 20260505000529 | 12 | 273 | 17.7 | 24.1 | 0.00 | 0.05 | 0.05 | 56 | 1002.4 |
| 20260505000026 | 13 | 254 | 12.9 | 24.1 | 0.00 | 0.05 | 0.05 | 52 | 1002.4 |
| 20260504235523 | 15 | 331 | 16.1 | 22.5 | 0.00 | 0.05 | 0.05 | 41 | 1001.5 |
| 20260504235019 | 16 | 313 | 8.0 | 11.3 | 0.00 | 0.05 | 0.05 | 41 | 1001.3 |
| 20260504234516 | 16 | 350 | 11.3 | 12.9 | 0.00 | 0.05 | 0.05 | 40 | 1001.0 |
| 20260504234013 | 16 | 0 | 12.9 | 17.7 | 0.00 | 0.05 | 0.05 | 40 | 1000.9 |
| 20260504233508 | 16 | 336 | 12.9 | 14.5 | 0.00 | 0.05 | 0.05 | 38 | 1001.0 |
| 20260504233006 | 16 | 10 | 4.8 | 8.0 | 0.00 | 0.05 | 0.05 | 38 | 1000.9 |
| 20260504232503 | 17 | 336 | 9.7 | 12.9 | 0.00 | 0.05 | 0.05 | 36 | 1001.0 |
| 20260504232000 | 17 | 285 | 11.3 | 16.1 | 0.00 | 0.05 | 0.05 | 34 | 1000.9 |
| 20260504231456 | 17 | 8 | 11.3 | 12.9 | 0.00 | 0.05 | 0.05 | 34 | 1001.2 |
| 20260504230953 | 16 | 335 | 8.0 | 12.9 | 0.00 | 0.05 | 0.05 | 40 | 1001.3 |
| 20260504230449 | 16 | 278 | 4.8 | 9.7 | 0.00 | 0.05 | 0.05 | 40 | 1001.0 |
| 20260504225948 | 16 | 290 | 14.5 | 14.5 | 0.00 | 0.05 | 0.05 | 37 | 1001.3 |
| 20260504225445 | 16 | 339 | 4.8 | 4.8 | 0.00 | 0.05 | 0.05 | 41 | 1001.4 |
| 20260504224942 | 17 | 155 | 1.6 | 3.2 | 0.00 | 0.05 | 0.05 | 37 | 1001.2 |
| 20260504224438 | 16 | 107 | 1.6 | 3.2 | 0.00 | 0.05 | 0.05 | 42 | 1001.0 |
| 20260504223936 | 16 | 107 | 8.0 | 9.7 | 0.00 | 0.05 | 0.05 | 40 | 1001.2 |
| 20260504223431 | 16 | 135 | 4.8 | 4.8 | 0.00 | 0.05 | 0.05 | 44 | 1001.3 |
| 20260504222927 | 16 | 112 | 6.4 | 8.0 | 0.00 | 0.05 | 0.05 | 41 | 1001.2 |
| 20260504222425 | 17 | 115 | 8.0 | 9.7 | 0.00 | 0.05 | 0.05 | 43 | 1001.3 |
| 20260504221923 | 17 | 67 | 9.7 | 11.3 | 0.00 | 0.05 | 0.05 | 41 | 1001.2 |
| 20260504221419 | 17 | 79 | 12.9 | 12.9 | 0.00 | 0.05 | 0.05 | 41 | 1001.2 |
| 20260504220916 | 17 | 99 | 9.7 | 11.3 | 0.00 | 0.05 | 0.05 | 43 | 1001.2 |
| 20260504220413 | 15 | 106 | 8.0 | 11.3 | 0.00 | 0.05 | 0.05 | 49 | 1001.3 |
| 20260504215910 | 15 | 80 | 6.4 | 8.0 | 0.00 | 0.05 | 0.05 | 51 | 1001.5 |
| 20260504215407 | 15 | 104 | 8.0 | 9.7 | 0.00 | 0.05 | 0.05 | 43 | 1001.8 |
| 20260504214903 | 15 | 123 | 9.7 | 11.3 | 0.00 | 0.05 | 0.05 | 47 | 1001.5 |
| 20260504214400 | 15 | 105 | 11.3 | 12.9 | 0.00 | 0.05 | 0.05 | 50 | 1001.6 |
| 20260504213856 | 14 | 72 | 14.5 | 16.1 | 0.00 | 0.05 | 0.05 | 52 | 1001.9 |
| 20260504213352 | 15 | 90 | 17.7 | 22.5 | 0.00 | 0.05 | 0.05 | 47 | 1001.9 |
| 20260504212850 | 15 | 89 | 9.7 | 11.3 | 0.00 | 0.05 | 0.05 | 53 | 1001.9 |
| 20260504212346 | 16 | 88 | 4.8 | 4.8 | 0.00 | 0.05 | 0.05 | 45 | 1002.0 |
| 20260504211844 | 16 | 83 | 6.4 | 8.0 | 0.00 | 0.05 | 0.05 | 44 | 1002.0 |
| 20260504211339 | 16 | 65 | 11.3 | 12.9 | 0.00 | 0.05 | 0.05 | 40 | 1001.9 |
| 20260504210837 | 17 | 140 | 3.2 | 3.2 | 0.00 | 0.05 | 0.05 | 35 | 1002.0 |
| 20260504210334 | 16 | 170 | 6.4 | 9.7 | 0.00 | 0.05 | 0.05 | 39 | 1002.1 |
| 20260504205831 | 14 | 87 | 9.7 | 12.9 | 0.00 | 0.05 | 0.05 | 56 | 1002.1 |
| 20260504205329 | 13 | 149 | 4.8 | 8.0 | 0.00 | 0.05 | 0.05 | 53 | 1002.6 |
| 20260504204827 | 14 | 198 | 8.0 | 9.7 | 0.30 | 0.05 | 0.05 | 52 | 1002.6 |
| 20260504204325 | 15 | 144 | 8.0 | 11.3 | 0.30 | 0.05 | 0.05 | 46 | 1002.5 |
| 20260504203824 | 15 | 130 | 4.8 | 4.8 | 0.00 | 0.00 | 0.00 | 42 | 1002.8 |
| 20260504203321 | 15 | 161 | 0.0 | 0.0 | 0.00 | 0.00 | 0.00 | 44 | 1002.6 |
| 20260504202816 | 15 | 189 | 4.8 | 4.8 | 0.00 | 0.00 | 0.00 | 44 | 1002.4 |
| 20260504202314 | 16 | 169 | 1.6 | 3.2 | 0.00 | 0.00 | 0.00 | 43 | 1002.6 |
| 20260504201810 | 17 | 200 | 4.8 | 4.8 | 0.00 | 0.00 | 0.00 | 42 | 1002.1 |
| 20260504201308 | 18 | 204 | 6.4 | 9.7 | 0.00 | 0.00 | 0.00 | 39 | 1002.5 |
| 20260504200805 | 16 | 120 | 8.0 | 9.7 | 0.00 | 0.00 | 0.00 | 41 | 1002.6 |
| 20260504200301 | 16 | 124 | 4.8 | 8.0 | 0.00 | 0.00 | 0.00 | 40 | 1002.7 |
| 20260504195758 | 16 | 91 | 9.7 | 11.3 | 0.00 | 0.00 | 0.00 | 41 | 1002.7 |
| 20260504195253 | 16 | 69 | 11.3 | 11.3 | 0.00 | 0.00 | 0.00 | 43 | 1002.7 |
| 20260504194751 | 17 | 317 | 9.7 | 11.3 | 0.00 | 0.00 | 0.00 | 36 | 1002.5 |
| 20260504194247 | 16 | 85 | 4.8 | 4.8 | 0.00 | 0.00 | 0.00 | 41 | 1002.6 |
| 20260504193743 | 16 | 22 | 6.4 | 9.7 | 0.00 | 0.00 | 0.00 | 43 | 1002.8 |
| 20260504193241 | 16 | 338 | 12.9 | 14.5 | 0.00 | 0.00 | 0.00 | 35 | 1002.7 |
| 20260504192739 | 17 | 219 | 8.0 | 9.7 | 0.00 | 0.00 | 0.00 | 36 | 1002.6 |
| 20260504192237 | 18 | 170 | 1.6 | 1.6 | 0.00 | 0.00 | 0.00 | 33 | 1002.5 |
| 20260504191735 | 18 | 214 | 4.8 | 4.8 | 0.00 | 0.00 | 0.00 | 36 | 1002.6 |
| 20260504191232 | 17 | 197 | 3.2 | 3.2 | 0.00 | 0.00 | 0.00 | 38 | 1002.7 |
| 20260504190727 | 17 | 352 | 4.8 | 4.8 | 0.00 | 0.00 | 0.00 | 36 | 1002.8 |
| 20260504190224 | 17 | 331 | 4.8 | 8.0 | 0.00 | 0.00 | 0.00 | 35 | 1003.1 |
| 20260504185720 | 17 | 143 | 0.0 | 0.0 | 0.00 | 0.00 | 0.00 | 35 | 1003.0 |
| 20260504185217 | 18 | 150 | 0.0 | 0.0 | 0.00 | 0.00 | 0.00 | 36 | 1003.1 |
| 20260504184713 | 17 | 18 | 11.3 | 12.9 | 0.00 | 0.00 | 0.00 | 38 | 1003.0 |
| 20260504184209 | 18 | 358 | 8.0 | 11.3 | 0.00 | 0.00 | 0.00 | 35 | 1003.1 |
| 20260504183705 | 17 | 17 | 12.9 | 14.5 | 0.00 | 0.00 | 0.00 | 39 | 1002.8 |
| 20260504183202 | 17 | 297 | 8.0 | 11.3 | 0.00 | 0.00 | 0.00 | 37 | 1003.6 |
| 20260504182700 | 16 | 336 | 6.4 | 11.3 | 0.00 | 0.00 | 0.00 | 37 | 1003.1 |
| 20260504182157 | 16 | 346 | 6.4 | 9.7 | 0.00 | 0.00 | 0.00 | 39 | 1003.4 |
| 20260504181655 | 16 | 324 | 12.9 | 14.5 | 0.00 | 0.00 | 0.00 | 37 | 1003.4 |
| 20260504181152 | 17 | 344 | 8.0 | 9.7 | 0.00 | 0.00 | 0.00 | 35 | 1003.2 |
| 20260504180651 | 17 | 356 | 6.4 | 9.7 | 0.00 | 0.00 | 0.00 | 36 | 1003.2 |
| 20260504180149 | 16 | 69 | 3.2 | 3.2 | 0.00 | 0.00 | 0.00 | 37 | 1003.4 |
| 20260504175646 | 17 | 322 | 9.7 | 11.3 | 0.00 | 0.00 | 0.00 | 35 | 1003.6 |
| 20260504175143 | 18 | 11 | 9.7 | 11.3 | 0.00 | 0.00 | 0.00 | 34 | 1003.3 |
| 20260504174641 | 17 | 328 | 12.9 | 14.5 | 0.00 | 0.00 | 0.00 | 33 | 1003.2 |
| 20260504174137 | 17 | 40 | 4.8 | 8.0 | 0.00 | 0.00 | 0.00 | 35 | 1003.6 |
| 20260504173635 | 17 | 125 | 3.2 | 4.8 | 0.00 | 0.00 | 0.00 | 36 | 1003.6 |
| 20260504173132 | 17 | 205 | 4.8 | 4.8 | 0.00 | 0.00 | 0.00 | 37 | 1003.2 |
| 20260504172629 | 17 | 76 | 3.2 | 3.2 | 0.00 | 0.00 | 0.00 | 35 | 1003.4 |
| 20260504172125 | 16 | 248 | 8.0 | 9.7 | 0.00 | 0.00 | 0.00 | 36 | 1003.3 |
| 20260504171621 | 17 | 239 | 9.7 | 11.3 | 0.00 | 0.00 | 0.00 | 37 | 1003.4 |
| 20260504171119 | 16 | 115 | 1.6 | 1.6 | 0.00 | 0.00 | 0.00 | 36 | 1003.4 |
| 20260504170615 | 17 | 307 | 4.8 | 4.8 | 0.00 | 0.00 | 0.00 | 35 | 1003.4 |
| 20260504170113 | 17 | 204 | 3.2 | 3.2 | 0.00 | 0.00 | 0.00 | 35 | 1003.4 |
| 20260504150958 | 15 | 165 | 0.0 | 1.6 | 0.00 | 0.00 | 0.00 | 46 | 1003.9 |
| 20260504150455 | 14 | 166 | 0.0 | 0.0 | 0.00 | 0.00 | 0.00 | 47 | 1004.0 |
| 20260504140922 | 10 | 137 | 0.0 | 1.6 | 0.00 | 0.00 | 0.00 | 55 | 1004.2 |
| 20260504140418 | 10 | 131 | 0.0 | 0.0 | 0.00 | 0.00 | 0.00 | 59 | 1004.5 |
| 20260504130343 | 4 | 101 | 1.6 | 3.2 | 0.00 | 0.00 | 0.00 | 66 | 1004.4 |
| 20260504120306 | 2 | 164 | 0.0 | 0.0 | 0.00 | 0.00 | 0.00 | 65 | 1004.4 |
| 20260504110230 | 3 | 140 | 1.6 | 3.2 | 0.00 | 0.00 | 0.00 | 65 | 1004.3 |
| 20260504100154 | 3 | 152 | 1.6 | 1.6 | 0.00 | 0.00 | 0.00 | 61 | 1004.5 |
| 20260504090116 | 5 | 117 | 9.7 | 11.3 | 0.00 | 0.00 | 0.00 | 56 | 1004.2 |
| 20260504081547 | 5 | 146 | 1.6 | 1.6 | 0.00 | 0.00 | 0.00 | 63 | 1005.0 |
| 20260504081042 | 5 | 134 | 0.0 | 1.6 | 0.00 | 0.00 | 0.00 | 63 | 1004.8 |
| 20260504080539 | 5 | 117 | 1.6 | 1.6 | 0.00 | 0.00 | 0.00 | 63 | 1004.9 |